FW1785 Weather Reports


time (UTC)temp
C
wind
direction
speed
KPH
gust
KPH
rain 1hr
cm
rain 24hr
cm
rain mn
cm
humidity
%
barometer
mb
20260906114519 34 288 1.6 6.4 0.00 0.00 0.00 45 1033.0
20260906113022 33 243 4.8 12.9 0.00 0.00 0.00 39 1033.0
20260906111521 33 256 6.4 11.3 0.00 0.00 0.00 45 1033.1
20260906110016 33 225 4.8 12.9 0.00 0.00 0.00 42 1033.1
20260906104514 33 26 4.8 17.7 0.00 0.00 0.00 55 1033.1
20260906103009 32 317 4.8 11.3 0.00 0.00 0.00 61 1033.1
20260906101608 32 337 3.2 6.4 0.00 0.00 0.00 62 1033.2
20260906100006 33 9 1.6 8.0 0.00 0.00 0.00 62 1033.2
20260906094506 32 330 1.6 11.3 0.00 0.00 0.00 65 1033.2
20260906093001 32 28 4.8 14.5 0.00 0.00 0.00 64 1033.4
20260906091559 32 336 4.8 8.0 0.00 0.00 0.00 65 1033.5
20260906090115 32 30 0.0 16.1 0.00 0.00 0.00 65 1033.6
20260906084556 32 32 4.8 14.5 0.00 0.00 0.00 63 1033.6
20260906083054 32 57 1.6 8.0 0.00 0.00 0.00 58 1033.8
20260906081553 32 36 1.6 8.0 0.00 0.00 0.00 57 1033.8
20260906080047 32 360 1.6 4.8 0.00 0.00 0.00 54 1034.0
20260906074541 32 40 1.6 8.0 0.00 0.00 0.00 49 1033.9
20260906073037 32 39 0.0 6.4 0.00 0.00 0.00 47 1033.9
20260906071536 32 42 3.2 8.0 0.00 0.00 0.00 49 1033.8
20260906070031 31 59 0.0 3.2 0.00 0.00 0.00 51 1034.0
20260906064533 31 57 3.2 8.0 0.00 0.00 0.00 52 1033.9
20260906063021 30 116 0.0 3.2 0.00 0.00 0.00 61 1033.8
20260906061516 29 118 3.2 6.4 0.00 0.00 0.00 63 1033.5
20260906060011 27 169 0.0 3.2 0.00 0.00 0.00 75 1033.6
20260906054507 27 169 1.6 4.8 0.00 0.00 0.00 77 1033.6
20260906053003 26 178 0.0 0.0 0.00 0.00 0.00 82 1033.7
20260906051559 25 179 0.0 0.0 0.00 0.00 0.00 83 1033.6
20260906050114 22 179 0.0 0.0 0.00 0.00 0.00 87 1033.6
20260906044554 21 179 0.0 0.0 0.00 0.00 0.00 90 1033.7
20260906043055 20 179 0.0 0.0 0.00 0.00 0.00 91 1033.7
20260906041541 20 179 0.0 1.6 0.00 0.00 0.00 91 1033.6
20260906040043 19 179 0.0 1.6 0.00 0.00 0.00 92 1033.7
20260906034541 19 179 0.0 4.8 0.00 0.00 0.00 90 1033.7
20260906033031 18 179 0.0 1.6 0.00 0.00 0.00 90 1033.6
20260906031534 18 179 0.0 3.2 0.00 0.00 0.00 87 1033.5
20260906030028 19 180 0.0 3.2 0.00 0.00 0.00 87 1033.6
20260906024528 19 180 0.0 3.2 0.00 0.00 0.00 86 1033.5
20260906023027 19 180 0.0 3.2 0.00 0.00 0.00 86 1033.6
20260906021526 19 180 1.6 4.8 0.00 0.00 0.00 84 1033.5
20260906020028 19 180 0.0 3.2 0.00 0.00 0.00 84 1033.4
20260906014532 20 180 3.2 6.4 0.00 0.00 0.00 83 1033.4
20260906013026 20 175 3.2 6.4 0.00 0.00 0.00 83 1033.5
20260906011523 19 188 4.8 8.0 0.00 0.00 0.00 84 1033.4
20260906010022 19 192 1.6 8.0 0.00 0.00 0.00 84 1033.5
20260906004523 19 192 3.2 4.8 0.00 0.00 0.00 84 1033.6
20260906003021 19 190 3.2 8.0 0.00 0.00 0.00 83 1033.6
20260906001520 19 171 0.0 4.8 0.00 0.00 0.00 82 1033.5
20260906000019 19 170 3.2 6.4 0.00 0.00 0.00 82 1033.6
20260905234518 19 181 0.0 6.4 0.00 0.00 0.00 81 1033.8
20260905233025 19 180 1.6 4.8 0.00 0.00 0.00 81 1033.7
20260905231517 19 156 1.6 4.8 0.00 0.00 0.00 82 1033.6
20260905230016 19 182 3.2 6.4 0.00 0.00 0.00 81 1033.6
20260905224514 19 178 1.6 6.4 0.00 0.00 0.00 80 1033.7
20260905223012 20 173 1.6 4.8 0.00 0.00 0.00 80 1033.7
20260905221511 20 173 0.0 4.8 0.00 0.00 0.00 80 1033.6
20260905220008 20 171 4.8 9.7 0.00 0.00 0.00 81 1033.6
20260905214507 20 173 0.0 1.6 0.00 0.00 0.00 82 1033.8
20260905213006 20 173 1.6 9.7 0.00 0.00 0.00 81 1033.9
20260905211502 20 191 4.8 11.3 0.00 0.00 0.00 81 1034.0
20260905210100 20 171 6.4 11.3 0.00 0.00 0.00 80 1034.1
20260905204559 21 155 0.0 4.8 0.00 0.00 0.00 79 1034.3
20260905203102 21 175 3.2 6.4 0.00 0.00 0.00 77 1034.3
20260905201605 21 153 0.0 1.6 0.00 0.00 0.00 76 1034.4
20260905200100 22 153 0.0 3.2 0.00 0.00 0.00 75 1034.5
20260905194559 22 153 0.0 4.8 0.00 0.00 0.00 76 1034.4
20260905193056 22 175 3.2 8.0 0.00 0.00 0.00 74 1034.3
20260905191607 22 211 0.0 3.2 0.00 0.00 0.00 77 1034.3
20260905190055 22 152 1.6 8.0 0.00 0.00 0.00 87 1034.0
20260905184607 22 176 0.0 6.4 0.00 0.00 0.00 89 1034.3
20260905183054 22 182 0.0 4.8 0.00 0.00 0.00 88 1034.4
20260905181553 23 189 1.6 6.4 0.00 0.00 0.00 86 1034.3
20260905180053 24 248 0.0 1.6 0.00 0.00 0.00 86 1034.4
20260905174557 24 248 0.0 0.0 0.00 0.00 0.00 86 1034.4
20260905173100 25 248 0.0 0.0 0.00 0.00 0.00 85 1034.4
20260905171548 25 248 0.0 0.0 0.00 0.00 0.00 85 1034.0
20260905170049 25 248 0.0 1.6 0.00 0.00 0.00 84 1033.8
20260905164547 25 248 0.0 3.2 0.00 0.00 0.00 83 1033.7
20260905163052 26 244 0.0 1.6 0.00 0.00 0.00 82 1033.4
20260905161545 26 244 0.0 0.0 0.00 0.00 0.00 81 1033.5
20260905160052 26 243 0.0 1.6 0.00 0.00 0.00 81 1033.6
20260905154549 26 244 3.2 6.4 0.00 0.00 0.00 80 1033.5
20260905153043 27 254 1.6 6.4 0.00 0.00 0.00 80 1033.3
20260905151542 27 241 4.8 11.3 0.00 0.00 0.00 79 1033.3
20260905150042 27 252 8.0 17.7 0.00 0.00 0.00 77 1033.3
20260905144547 28 239 3.2 8.0 0.00 0.00 0.00 75 1033.1
20260905143039 28 42 0.0 4.8 0.00 0.00 0.00 74 1033.2
20260905141601 29 22 1.6 14.5 0.00 0.00 0.00 72 1033.1
20260905140048 29 332 3.2 12.9 0.00 0.00 0.00 70 1032.9
20260905134539 30 36 3.2 4.8 0.00 0.00 0.00 65 1032.8
20260905133050 31 44 3.2 6.4 0.00 0.00 0.00 65 1033.0
20260905131551 31 52 0.0 9.7 0.00 0.00 0.00 65 1033.1
20260905130035 31 40 4.8 14.5 0.00 0.00 0.00 66 1033.3
20260905124534 31 67 8.0 12.9 0.00 0.00 0.00 66 1033.1
20260905123033 31 30 1.6 14.5 0.00 0.00 0.00 68 1033.3
20260905121532 31 57 0.0 6.4 0.00 0.00 0.00 69 1033.2
20260905120031 31 360 6.4 12.9 0.00 0.00 0.00 67 1033.2